Crane Lake, MN

1:30 AM CDT on May 25, 2017 (GMT -0500)
Crane Lake

Weather History for KCDD - April, 2012

Change the Weather History Date:

Friday, April 13, 2012

  Actual Average Record
Temperature  
Mean Temperature 44 °F -  
Max Temperature 60 °F 46 °F 69 °F (2002)
Min Temperature 28 °F 25 °F 12 °F (2008)
Degree Days  
Heating Degree Days 21    
Moisture  
Dew Point 27 °F    
Average Humidity 55    
Maximum Humidity 87    
Minimum Humidity 25    
Precipitation  
Precipitation 0.02 in - - ()
Sea Level Pressure  
Sea Level Pressure 29.94 in    
Wind  
Wind Speed 3 mph (SE)    
Max Wind Speed 12 mph    
Max Gust Speed 26 mph    
Visibility 10 miles    
Events Rain    
Averages and records for this station are not official NWS values.
T = Trace of Precipitation, MM = Missing Value Source: NWS Daily Summary

Daily Weather History Graph

Daily Weather History Graph

Search for Another Location

Airport or City:

Trip Planner

Search our weather history database for the weather conditions in past years. The results will help you decide how hot, cold, wet, or windy it might be!

Date:

Astronomy

Apr. 13, 2012 Rise Set
Actual Time 6:22 AM CDT 7:58 PM CDT
Civil Twilight 5:50 AM CDT 8:31 PM CDT
Nautical Twilight 5:10 AM CDT 9:11 PM CDT
Astronomical Twilight 4:27 AM CDT 9:55 PM CDT
Moon 2:41 AM CDT (4/13) 12:15 PM CDT (4/13)
Length of Visible Light 14h 41m
Length of Day
13h 35m
Waning Gibbous, 47% of the Moon is Illuminated
Apr 13
Waning Gibbous
Apr 21
New
Apr 29
First Quarter
May 5
Full
May 12
Last Quarter

Hourly Weather History & Observations

Time (CDT) Temp. Windchill Dew Point Humidity Pressure Visibility Wind Dir Wind Speed Gust Speed Precip Events Conditions
12:14 AM 39.2 °F 37.0 °F 21.2 °F 49% 30.10 in 10.0 mi SSE 3.5 mph - N/A   Clear
12:35 AM 37.4 °F 34.9 °F 21.2 °F 52% 30.10 in 10.0 mi SE 3.5 mph - N/A   Scattered Clouds
12:54 AM 37.4 °F - 21.2 °F 52% 30.09 in 10.0 mi Calm Calm - N/A   Scattered Clouds
1:14 AM 37.4 °F 34.9 °F 21.2 °F 52% 30.09 in 10.0 mi SSE 3.5 mph - N/A   Clear
1:35 AM 37.4 °F 34.9 °F 21.2 °F 52% 30.08 in 10.0 mi SE 3.5 mph - N/A   Clear
1:54 AM 35.6 °F - 21.2 °F 56% 30.08 in 10.0 mi Calm Calm - N/A   Clear
2:14 AM 35.6 °F - 21.2 °F 56% 30.07 in 10.0 mi Calm Calm - N/A   Clear
2:34 AM 33.8 °F - 21.2 °F 60% 30.06 in 10.0 mi Calm Calm - N/A   Clear
3:14 AM 28.4 °F - 21.2 °F 74% 30.06 in 10.0 mi Calm Calm - N/A   Clear
3:35 AM 28.4 °F - 21.2 °F 74% 30.06 in 10.0 mi Calm Calm - N/A   Clear
3:55 AM 28.4 °F - 21.2 °F 74% 30.06 in 10.0 mi Calm Calm - N/A   Clear
4:15 AM 28.4 °F - 21.2 °F 74% 30.05 in 10.0 mi Calm Calm - N/A   Clear
4:34 AM 28.4 °F - 21.2 °F 74% 30.05 in 10.0 mi Calm Calm - N/A   Scattered Clouds
4:54 AM 28.4 °F - 24.8 °F 86% 30.05 in 10.0 mi Calm Calm - N/A   Clear
5:34 AM 28.4 °F - 23.0 °F 80% 30.05 in 10.0 mi Calm Calm - N/A   Clear
5:55 AM 28.4 °F - 23.0 °F 80% 30.05 in 10.0 mi Calm Calm - N/A   Clear
6:14 AM 28.4 °F - 23.0 °F 80% 30.05 in 10.0 mi Calm Calm - N/A   Clear
6:35 AM 28.4 °F - 24.8 °F 86% 30.05 in 10.0 mi Calm Calm - N/A   Clear
6:55 AM 28.4 °F - 23.0 °F 80% 30.05 in 10.0 mi Calm Calm - N/A   Clear
7:14 AM 28.4 °F - 24.8 °F 86% 30.04 in 10.0 mi Calm Calm - N/A   Clear
7:34 AM 30.2 °F - 24.8 °F 80% 30.04 in 10.0 mi Calm Calm - N/A   Clear
7:54 AM 35.6 °F - 24.8 °F 65% 30.03 in 10.0 mi Calm Calm - N/A   Clear
8:14 AM 39.2 °F - 24.8 °F 56% 30.03 in 10.0 mi Calm Calm - N/A   Clear
8:34 AM 42.8 °F - 24.8 °F 49% 30.03 in 10.0 mi Calm Calm - N/A   Clear
8:54 AM 44.6 °F - 24.8 °F 46% 30.02 in 10.0 mi Calm Calm - N/A   Clear
9:14 AM 48.2 °F - 24.8 °F 40% 30.01 in 10.0 mi Calm Calm - N/A   Clear
9:34 AM 51.8 °F - 24.8 °F 35% 30.00 in 10.0 mi SE 4.6 mph - N/A   Clear
9:54 AM 51.8 °F - 24.8 °F 35% 30.00 in 10.0 mi SE 8.1 mph - N/A   Clear
10:14 AM 53.6 °F - 24.8 °F 33% 30.00 in 10.0 mi SSE 6.9 mph - N/A   Clear
10:34 AM 53.6 °F - 24.8 °F 33% 30.00 in 10.0 mi SSE 9.2 mph 21.9 mph N/A   Clear
10:54 AM 55.4 °F - 24.8 °F 31% 29.99 in 10.0 mi South 11.5 mph 20.7 mph N/A   Clear
11:14 AM 55.4 °F - 24.8 °F 31% 29.98 in 10.0 mi SSE 4.6 mph 26.5 mph N/A   Clear
11:34 AM 57.2 °F - 23.0 °F 27% 29.97 in 10.0 mi SSE 11.5 mph 21.9 mph N/A   Clear
11:54 AM 57.2 °F - 24.8 °F 29% 29.96 in 10.0 mi SE 5.8 mph 18.4 mph N/A   Scattered Clouds
12:14 PM 57.2 °F - 24.8 °F 29% 29.96 in 10.0 mi SSE 8.1 mph 19.6 mph N/A   Clear
12:34 PM 57.2 °F - 23.0 °F 27% 29.95 in 10.0 mi SSE 11.5 mph 19.6 mph N/A   Clear
12:54 PM 57.2 °F - 23.0 °F 27% 29.94 in 10.0 mi SSE 11.5 mph 21.9 mph N/A   Clear
1:14 PM 57.2 °F - 23.0 °F 27% 29.93 in 10.0 mi SSE 9.2 mph 16.1 mph N/A   Clear
1:34 PM 60.8 °F - 24.8 °F 25% 29.93 in 10.0 mi South 8.1 mph 20.7 mph N/A   Clear
1:54 PM 57.2 °F - 23.0 °F 27% 29.92 in 10.0 mi SSE 10.4 mph 20.7 mph N/A   Clear
2:14 PM 55.4 °F - 23.0 °F 29% 29.92 in 10.0 mi SE 5.8 mph 19.6 mph N/A   Clear
2:34 PM 57.2 °F - 23.0 °F 27% 29.92 in 10.0 mi SE 5.8 mph 20.7 mph N/A   Clear
2:55 PM 57.2 °F - 23.0 °F 27% 29.91 in 10.0 mi SSE 8.1 mph - N/A   Clear
3:14 PM 55.4 °F - 23.0 °F 29% 29.89 in 10.0 mi SE 5.8 mph - N/A   Clear
3:34 PM 55.4 °F - 23.0 °F 29% 29.88 in 10.0 mi East 4.6 mph 17.3 mph N/A   Clear
3:55 PM 55.4 °F - 24.8 °F 31% 29.87 in 10.0 mi SE 5.8 mph - N/A   Scattered Clouds
4:14 PM 55.4 °F - 24.8 °F 31% 29.85 in 10.0 mi ESE 5.8 mph - N/A   Clear
4:35 PM 55.4 °F - 24.8 °F 31% 29.84 in 10.0 mi ESE 5.8 mph - N/A   Clear
4:54 PM 55.4 °F - 24.8 °F 31% 29.84 in 10.0 mi ESE 6.9 mph - N/A   Clear
5:15 PM 53.6 °F - 30.2 °F 41% 29.82 in 10.0 mi SE 4.6 mph - N/A Rain Light Rain
5:34 PM 51.8 °F - 30.2 °F 44% 29.80 in 10.0 mi ESE 4.6 mph - N/A   Scattered Clouds
5:55 PM 51.8 °F - 28.4 °F 41% 29.80 in 10.0 mi SE 3.5 mph - N/A Rain Light Rain
6:14 PM 48.2 °F - 33.8 °F 58% 29.80 in 10.0 mi ESE 4.6 mph - N/A Rain Light Rain
6:34 PM 46.4 °F - 37.4 °F 71% 29.81 in 10.0 mi Calm Calm - N/A Rain Rain
6:54 PM 44.6 °F 43.1 °F 39.2 °F 81% 29.83 in 10.0 mi SE 3.5 mph - 0.01 in Rain Light Rain
7:14 PM 44.6 °F 43.1 °F 37.4 °F 76% 29.81 in 10.0 mi SE 3.5 mph - N/A   Mostly Cloudy
7:34 PM 46.4 °F 44.3 °F 35.6 °F 66% - 10.0 mi ESE 4.6 mph - N/A   Mostly Cloudy
7:55 PM 44.6 °F 40.7 °F 37.4 °F 76% 29.80 in 10.0 mi ESE 6.9 mph - 0.01 in Rain Rain
8:14 PM 44.6 °F - 39.2 °F 81% 29.79 in 10.0 mi Calm Calm - N/A   Mostly Cloudy
8:34 PM 44.6 °F - 37.4 °F 76% 29.79 in 10.0 mi Calm Calm - N/A   Mostly Cloudy
8:54 PM 44.6 °F 42.2 °F 37.4 °F 76% 29.77 in 10.0 mi ESE 4.6 mph - N/A   Mostly Cloudy
9:14 PM 44.6 °F 43.1 °F 37.4 °F 76% 29.77 in 10.0 mi SE 3.5 mph - N/A   Mostly Cloudy
9:34 PM 44.6 °F - 35.6 °F 71% 29.76 in 10.0 mi Calm Calm - N/A   Mostly Cloudy
9:55 PM 44.6 °F - 35.6 °F 71% 29.75 in 10.0 mi Calm Calm - N/A   Light Drizzle
10:15 PM 44.6 °F 43.1 °F 37.4 °F 76% 29.73 in 10.0 mi ESE 3.5 mph - N/A Rain Light Rain
10:34 PM 44.6 °F 42.2 °F 35.6 °F 71% 29.71 in 10.0 mi ESE 4.6 mph - N/A   Mostly Cloudy
11:14 PM 44.6 °F 43.1 °F 37.4 °F 76% 29.69 in 10.0 mi ESE 3.5 mph - N/A   Drizzle
11:54 PM 42.8 °F 39.3 °F 39.2 °F 87% 29.68 in 10.0 mi ESE 5.8 mph - N/A Rain Light Rain